Regional Weather Roundup
Issued by NWS

Home | Current Version | Previous Version | Text Only | Print | Product List | Glossary On
Versions: 1 2 3 4 5 6 7 8 9 10 11 12 13 14 15 16 17 18 19 20 21 22 23 24 25 26 27 28 29 30 31 32 33 34 35 36 37 38 39 40 41 42 43 44 45 46 47 48 49 50
000
ASUS43 KMPX 180201
RWRMN
WEATHER ROUNDUP FOR MINNESOTA
NATIONAL WEATHER SERVICE TWIN CITIES/CHANHASSEN MN
800 PM CST TUE JAN 17 2017


NOTE: "FAIR" INDICATES FEW OR NO CLOUDS BELOW 12,000 FEET WITH NO
SIGNIFICANT WEATHER AND/OR OBSTRUCTIONS TO VISIBILITY. N/A MEANS
CURRENT SKY AND/OR WEATHER CONDITIONS ARE NOT AVAILABLE.

MNZ060>063-068>070-180300-
   Twin Cities Metro

CITY           SKY/WX    TMP DP  RH WIND       PRES   REMARKS
TWIN CITIES    CLOUDY    32  29  88 SW9       29.99S FOG     WCI  24
ST PAUL        CLOUDY    33  31  92 W8        30.00S WCI  26
CRYSTAL        CLOUDY    32  27  81 SW8       29.98S WCI  25
BLAINE         CLOUDY    34  34 100 SW8       29.97F WCI  27
LAKEVILLE      CLOUDY    30  30 100 SW7       29.99S FOG     WCI  23
EDEN PRAIRIE   CLOUDY    31  27  85 SW10      29.98S WCI  22
SOUTH ST PAUL  CLOUDY    33  32  96 SW6       29.99S WCI  27
LAKE ELMO      CLOUDY    32  32 100 SW8       29.99S FOG     WCI  25
$$
MNZ001>005-007-008-013>017-022>024-027-028-180300-
   Northwest Minnesota

CITY           SKY/WX    TMP DP  RH WIND       PRES   REMARKS
BEMIDJI        CLOUDY    26  20  76 S8        29.79F WCI  18
HALLOCK        CLOUDY    19  16  86 S21       29.67F WCI   3
ROSEAU         CLOUDY    25  18  74 S17       29.68R WCI  11
WARROAD        CLEAR     27  19  74 S8G18     29.68F WCI  18
THIEF RVR FALL CLOUDY    22  18  85 S17       29.74F WCI   8
CROOKSTON      CLOUDY    19  18  93 S21       29.75F WCI   3
FOSSTON        CLOUDY    25  19  80 S17       29.77F WCI  11
DETROIT LAKES  CLOUDY    21  19  93 S12       29.83F WCI   9
MOORHEAD       CLOUDY    18  16  93 S17       29.83F WCI   2
PARK RAPIDS    CLOUDY    19  12  74 S8        29.84F WCI   9
MAHNOMEN       FAIR      25  20  82 S22       29.78F WCI  10
$$
MNZ006-009>011-018-025>026-180300-
   North Central Minnesota

CITY           SKY/WX    TMP DP  RH WIND       PRES   REMARKS
BAUDETTE       CLOUDY    28  20  71 S13       29.70F WCI  17
FLAG ISLAND    CLOUDY    16  12  86 SE13      29.65F WCI   2
INTL FALLS     CLOUDY    27  17  66 VRB5      29.75F WCI  22
WASKISH        CLOUDY    28  21  74 S8        29.75F WCI  20
BIG FORK       CLOUDY    27  18  69 S7        29.81F WCI  19
LONGVILLE      CLOUDY    27  16  63 S6        29.86F WCI  20
GRAND RAPIDS   CLOUDY    27  16  63 S8        29.87F WCI  19
CRANE LAKE     CLOUDY    23  18  80 S3        29.82F
ORR            CLOUDY    25  16  68 CALM      29.78F
COOK           CLOUDY    28  16  59 S5        29.82F WCI  23
WALKER         FAIR      24  19  78 SW8       29.83F WCI  15
$$
MNZ012-019>021-037-180300-
   Northeast Minnesota

CITY           SKY/WX    TMP DP  RH WIND       PRES   REMARKS
DULUTH         CLOUDY    29  21  72 W8        29.86F WCI  21
ELY            CLOUDY    27  16  63 SW6       29.82S WCI  20
HIBBING        CLOUDY    24  13  62 S3        29.85S
EVELETH        CLOUDY    26  11  53 SW6       29.86S WCI  19
DULUTH HARBOR  CLOUDY    28  23  80 CALM      29.91S
TWO HARBORS    CLOUDY    28  23  80 W5        29.85F WCI  23
SILVER BAY     CLOUDY    19  19 100 CALM      29.85F
GRAND MARAIS     N/A     34  32  92 W8        29.87F WCI  27
G MARAIS ARPRT FOG       27  23  86 S5        29.82F VSB 1/4 WCI  21
$$
MNZ029>031-032-039>041-046>048-054>057-064-180300-
   West Central Minnesota

CITY           SKY/WX    TMP DP  RH WIND       PRES   REMARKS
FERGUS FALLS   CLOUDY    16  12  86 S13       29.93F WCI   2
WHEATON        CLOUDY    23  19  86 SE12      29.92F WCI  12
MORRIS         CLOUDY    14  10  85 SE12      29.92F WCI   0
ALEXANDRIA     CLOUDY    17  13  84 SW12      29.92F WCI   4
ELBOW LAKE     FAIR      15  13  90 SE14      29.90F FOG     WCI   1
WADENA         CLOUDY    16  12  86 S9        29.87F WCI   4
GLENWOOD       CLOUDY    14  10  85 S9        29.94F WCI   2
APPLETON       CLOUDY    19  18  93 S5        29.95F WCI  13
ORTONVILLE     CLOUDY    16  12  86 CALM      29.93F
MADISON        CLOUDY    19  18  93 S6        29.95F WCI  11
WILLMAR        FAIR      16  12  86 CALM      29.98R
$$
MNZ033>034-036-042>043-049>051-058-059-180300-
   Central Minnesota

CITY           SKY/WX    TMP DP  RH WIND       PRES   REMARKS
ST CLOUD       CLOUDY    24  22  91 SW9       29.96S WCI  14
SAUK CENTRE    FAIR      14  11  86 S7        29.94S WCI   4
PAYNESVILLE    CLOUDY    17  17 100 SW3       29.97R FOG
AITKIN         CLOUDY    27  16  63 S6        29.88F WCI  20
PINE RIVER     CLOUDY    21  16  79 S5        29.91F WCI  15
BRAINERD       CLOUDY    22  15  75 S6        29.90F WCI  14
STAPLES        CLOUDY    18  12  79 S6        29.90S WCI   9
LONG PRAIRIE   FAIR      18  12  79 S6        29.93S FOG     WCI   9
LITTLE FALLS   CLOUDY    21  14  73 S3        29.95R
LITCHFIELD     CLOUDY    19  18  93 CALM      29.98R
BUFFALO        CLOUDY    26  23  89 SW6       29.99S WCI  19
MAPLE LAKE     CLOUDY    25  24  95 SW3       29.98S
HUTCHINSON     FOG       27  27  99 S5        29.99S VSB 1/2 WCI  22
$$
MNZ037-044-045-052-053-180300-
   East Central Minnesota

CITY           SKY/WX    TMP DP  RH WIND       PRES   REMARKS
PRINCETON      CLOUDY    30  28  93 SW5       29.96S WCI  25
MORA           CLOUDY    27  27 100 SW6       29.96F FOG     WCI  20
CAMBRIDGE      CLOUDY    34  27  75 SW8       29.94F WCI  27
RUSH CITY      CLOUDY    30  28  93 SW8       29.95F FOG     WCI  23
MOOSE LAKE     CLOUDY    28  23  80 SW7       29.90R WCI  21
HINCKLEY       CLOUDY    28  28 100 SW7       29.94S FOG     WCI  21
CLOQUET        CLOUDY    28  18  64 SW5       29.88S WCI  23
MCGREGOR       CLOUDY    25  19  80 CALM      29.90S
$$
MNZ071>073-080-081-089-090-097-098-180300-
   Southwest Minnesota

CITY           SKY/WX    TMP DP  RH WIND       PRES   REMARKS
MONTEVIDEO     CLOUDY    19  18  93 SW7       29.98S WCI  10
GRANITE FALLS  CLOUDY    20  18  93 S6        29.98S WCI  12
CANBY            N/A     30  24  78 SW5       29.95F WCI  25
MARSHALL       CLOUDY    26  22  84 W9        29.96S WCI  17
REDWOOD FALLS  CLOUDY    20  16  84 S5        29.98S FOG     WCI  13
OLIVIA         CLOUDY    21  18  86 S5        29.97S WCI  15
PIPESTONE      CLOUDY    25  21  86 SW8       29.96S WCI  16
WINDOM           N/A     27  27 100 S6        29.98F WCI  20
WORTHINGTON    CLOUDY    26  25  96 SW14      29.98F WCI  14
JACKSON        CLOUDY    27  25  93 SW6       29.99F WCI  20
TRACY          CLOUDY    28  24  84 SW16      29.96S WCI  16
SLAYTON        CLOUDY    26  24  90 S9        29.97S WCI  17
$$
MNZ065>067-074>077-082>085-091>093-180300-
   South Central Minnesota

CITY           SKY/WX    TMP DP  RH WIND       PRES   REMARKS
MANKATO        CLOUDY    30  29  96 S9        30.01S WCI  22
NEW ULM        CLOUDY    25  25 100 CALM      29.99S
ST JAMES       CLOUDY    27  27 100 S5        30.01F WCI  21
FAIRMONT       CLEAR     27  26  96 SW7       30.02S WCI  19
GLENCOE        CLOUDY    30  30 100 SW8       29.98S WCI  22
FARIBAULT      FOG       30  30 100 SW9       30.01R VSB 1/2 WCI  22
OWATONNA       FOG       30  28  93 SW9       30.01R VSB 1/4 WCI  22
WASECA         FOG       30  30 100 SW12      30.03S VSB 3/4 WCI  21
ALBERT LEA     FOG       30  30 100 W5        30.01S VSB 1/2 WCI  25
$$
MNZ078>079-086>088-094>096-180300-
   Southeast Minnesota

CITY           SKY/WX    TMP DP  RH WIND       PRES   REMARKS
ROCHESTER      FOG       31  31 100 W6        30.00S VSB 3/4 WCI  25
RED WING       CLOUDY    34  30  86 W6        30.00R FOG     WCI  29
STANTON        CLOUDY    33  32  93 W7        29.99R WCI  27
DODGE CENTER   FOG       30  30 100 CALM      30.00R VSB 1
WINONA         CLOUDY    34  32  93 NW6       30.01R FOG     WCI  29
AUSTIN         FOG       30  30 100 W5        30.01S VSB 1/2 WCI  25
PRESTON        FOG       31  30  96 NW8       30.01R VSB 1   WCI  24
$$
ABBREVIATIONS USED IN REMARKS
   TC - TEMPERATURES IN CELSIUS
  WCI - WIND CHILL INDEX
   HX - HEAT INDEX
  VSB - VISIBILITY
$$




USA.gov is the U.S. government's official web portal to all federal, state and local government web resources and services.